Location: Unspecified
(48.5670°N, 0.0000°E)
Time: 03:29:27
(UTC+00:00)

Vanguard 1 Rocket - Visible Passes

Search period start: 08 August 2020 00:00
Search period end: 18 August 2020 00:00
Orbit: 655 x 4222 km, 34.3° (Epoch: 07 August)

Date Brightness Start Highest point End Pass type
(mag) Time Alt. Az. Time Alt. Az. Time Alt. Az.
14 Aug 10.2 03:46:53 10° S 03:52:24 15° SSE 03:56:38 10° SE visible
15 Aug 10.6 02:37:22 10° S 02:40:53 11° SSE 02:43:55 10° SE visible
16 Aug 10.0 03:47:09 10° SSW 03:55:21 20° SSE 04:00:57 10° ESE visible
17 Aug 10.4 02:37:48 13° S 02:43:46 17° SSE 02:49:38 10° ESE visible
